When you browse on this site, cookies collect data to enhance your experience and personalize the content and advertising you see.
Visit our Privacy Policy to learn more. By continuing to use the site, you agree to this use of cookies and data.

Météo par heure à Marinka

Ce jour, 20 Septembre, Dimanche

Heure Température Précipitation Vent Pression Humidité
00:00 +12°C° 0 mm 2 m/s 750 mmHg 54%
01:00 +12°C° 0 mm 2 m/s 750 mmHg 57%
02:00 +12°C° 0 mm 2 m/s 750 mmHg 59%
03:00 +10°C° 0 mm 2 m/s 749 mmHg 63%
04:00 +10°C° 0 mm 2 m/s 749 mmHg 65%
05:00 +9°C° 0 mm 2 m/s 749 mmHg 66%
06:00 +9°C° 0 mm 2 m/s 749 mmHg 67%
07:00 +11°C° 0 mm 3 m/s 750 mmHg 59%
08:00 +13°C° 0 mm 3 m/s 750 mmHg 52%
09:00 +15°C° 0 mm 4 m/s 750 mmHg 44%
10:00 +18°C° 0 mm 4 m/s 750 mmHg 39%
11:00 +19°C° 0 mm 5 m/s 750 mmHg 34%
12:00 +21°C° 0 mm 6 m/s 750 mmHg 30%
13:00 +21°C° 0 mm 6 m/s 750 mmHg 29%
14:00 +22°C° 0 mm 6 m/s 750 mmHg 28%
15:00 +22°C° 0 mm 6 m/s 750 mmHg 27%
16:00 +21°C° 0 mm 5 m/s 750 mmHg 29%
17:00 +20°C° 0 mm 4 m/s 750 mmHg 30%
18:00 +19°C° 0 mm 3 m/s 750 mmHg 32%
19:00 +17°C° 0 mm 3 m/s 751 mmHg 37%
20:00 +16°C° 0 mm 3 m/s 751 mmHg 42%
21:00 +13°C° 0 mm 3 m/s 752 mmHg 47%
22:00 +12°C° 0 mm 3 m/s 752 mmHg 50%
23:00 +12°C° 0 mm 3 m/s 752 mmHg 52%

Demain, 21 Septembre, Lundi

Heure Température Précipitation Vent Pression Humidité
00:00 +12°C° 0 mm 2 m/s 753 mmHg 55%
01:00 +10°C° 0 mm 2 m/s 753 mmHg 57%
02:00 +10°C° 0 mm 2 m/s 753 mmHg 59%
03:00 +9°C° 0 mm 2 m/s 753 mmHg 61%
04:00 +9°C° 0 mm 2 m/s 753 mmHg 62%
05:00 +9°C° 0 mm 2 m/s 753 mmHg 63%
06:00 +9°C° 0 mm 1 m/s 753 mmHg 63%
07:00 +11°C° 0 mm 1 m/s 754 mmHg 56%
08:00 +13°C° 0 mm 2 m/s 754 mmHg 48%
09:00 +15°C° 0 mm 2 m/s 754 mmHg 41%
10:00 +17°C° 0 mm 2 m/s 754 mmHg 36%
11:00 +18°C° 0 mm 2 m/s 754 mmHg 31%
12:00 +20°C° 0 mm 2 m/s 754 mmHg 27%
13:00 +21°C° 0 mm 2 m/s 754 mmHg 24%
14:00 +21°C° 0 mm 2 m/s 753 mmHg 22%
15:00 +23°C° 0 mm 2 m/s 753 mmHg 20%
16:00 +21°C° 0 mm 2 m/s 753 mmHg 21%
17:00 +20°C° 0 mm 2 m/s 752 mmHg 22%
18:00 +19°C° 0 mm 2 m/s 752 mmHg 23%
19:00 +18°C° 0 mm 2 m/s 752 mmHg 25%
20:00 +16°C° 0 mm 2 m/s 753 mmHg 27%
21:00 +15°C° 0 mm 2 m/s 753 mmHg 29%
22:00 +14°C° 0 mm 1 m/s 753 mmHg 30%
23:00 +14°C° 0 mm 1 m/s 753 mmHg 31%

Après-demain, 22 Septembre, Mardi

Heure Température Précipitation Vent Pression Humidité
00:00 +13°C° 0 mm 1 m/s 753 mmHg 32%
01:00 +12°C° 0 mm 1 m/s 753 mmHg 33%
02:00 +12°C° 0 mm 1 m/s 753 mmHg 34%
03:00 +12°C° 0 mm 1 m/s 753 mmHg 35%
04:00 +11°C° 0 mm 1 m/s 753 mmHg 36%
05:00 +11°C° 0 mm 1 m/s 753 mmHg 37%
06:00 +11°C° 0 mm 1 m/s 753 mmHg 38%
07:00 +13°C° 0 mm 1 m/s 753 mmHg 33%
08:00 +16°C° 0 mm 1 m/s 754 mmHg 29%
09:00 +19°C° 0 mm 1 m/s 754 mmHg 25%
10:00 +21°C° 0 mm 1 m/s 754 mmHg 22%
11:00 +21°C° 0 mm 2 m/s 754 mmHg 20%
12:00 +24°C° 0 mm 2 m/s 754 mmHg 18%
13:00 +25°C° 0 mm 2 m/s 753 mmHg 16%
14:00 +25°C° 0 mm 1 m/s 753 mmHg 15%
15:00 +26°C° 0 mm 1 m/s 753 mmHg 14%
16:00 +25°C° 0 mm 1 m/s 753 mmHg 15%
17:00 +24°C° 0 mm 1 m/s 752 mmHg 17%
18:00 +21°C° 0 mm 2 m/s 752 mmHg 18%
19:00 +20°C° 0 mm 2 m/s 752 mmHg 20%
20:00 +18°C° 0 mm 2 m/s 752 mmHg 22%
21:00 +17°C° 0 mm 2 m/s 752 mmHg 23%
22:00 +16°C° 0 mm 2 m/s 752 mmHg 25%
23:00 +16°C° 0 mm 2 m/s 752 mmHg 26%

23 Septembre, Mercredi

Heure Température Précipitation Vent Pression Humidité
00:00 +15°C° 0 mm 2 m/s 752 mmHg 28%
01:00 +15°C° 0 mm 2 m/s 752 mmHg 29%
02:00 +14°C° 0 mm 2 m/s 752 mmHg 30%
03:00 +14°C° 0 mm 2 m/s 751 mmHg 30%
04:00 +14°C° 0 mm 2 m/s 752 mmHg 31%
05:00 +13°C° 0 mm 2 m/s 752 mmHg 31%
06:00 +13°C° 0 mm 2 m/s 752 mmHg 31%
07:00 +15°C° 0 mm 2 m/s 752 mmHg 28%
08:00 +18°C° 0 mm 2 m/s 752 mmHg 24%
09:00 +20°C° 0 mm 3 m/s 752 mmHg 21%
10:00 +22°C° 0 mm 3 m/s 752 mmHg 19%
11:00 +25°C° 0 mm 3 m/s 751 mmHg 16%
12:00 +26°C° 0 mm 3 m/s 751 mmHg 14%
13:00 +27°C° 0 mm 3 m/s 751 mmHg 13%
14:00 +28°C° 0 mm 3 m/s 750 mmHg 13%
15:00 +28°C° 0 mm 3 m/s 750 mmHg 12%
16:00 +27°C° 0 mm 3 m/s 749 mmHg 13%
17:00 +26°C° 0 mm 2 m/s 749 mmHg 14%
18:00 +24°C° 0 mm 2 m/s 749 mmHg 16%
19:00 +23°C° 0 mm 2 m/s 749 mmHg 17%
20:00 +20°C° 0 mm 2 m/s 749 mmHg 19%
21:00 +19°C° 0 mm 3 m/s 749 mmHg 20%
22:00 +18°C° 0 mm 3 m/s 749 mmHg 22%
23:00 +17°C° 0 mm 3 m/s 749 mmHg 23%

24 Septembre, Jeudi

Heure Température Précipitation Vent Pression Humidité
00:00 +17°C° 0 mm 3 m/s 749 mmHg 25%
01:00 +16°C° 0 mm 3 m/s 749 mmHg 26%
02:00 +16°C° 0 mm 3 m/s 749 mmHg 27%
03:00 +16°C° 0 mm 3 m/s 749 mmHg 28%
04:00 +14°C° 0 mm 3 m/s 749 mmHg 30%
05:00 +14°C° 0 mm 3 m/s 749 mmHg 31%
06:00 +13°C° 0 mm 3 m/s 749 mmHg 33%
07:00 +16°C° 0 mm 3 m/s 749 mmHg 32%
08:00 +18°C° 0 mm 4 m/s 749 mmHg 32%
09:00 +20°C° 0 mm 4 m/s 749 mmHg 31%
10:00 +22°C° 0 mm 4 m/s 749 mmHg 29%
11:00 +25°C° 0 mm 5 m/s 749 mmHg 26%
12:00 +27°C° 0 mm 5 m/s 748 mmHg 24%
13:00 +28°C° 0 mm 5 m/s 748 mmHg 24%
14:00 +29°C° 0 mm 5 m/s 748 mmHg 25%
15:00 +29°C° 0 mm 4 m/s 748 mmHg 26%
16:00 +28°C° 0 mm 4 m/s 747 mmHg 28%
17:00 +27°C° 0 mm 3 m/s 747 mmHg 30%
18:00 +26°C° 0 mm 3 m/s 747 mmHg 32%
19:00 +25°C° 0 mm 3 m/s 747 mmHg 34%
20:00 +22°C° 0 mm 3 m/s 747 mmHg 35%
21:00 +21°C° 0 mm 4 m/s 747 mmHg 37%
22:00 +21°C° 0 mm 4 m/s 747 mmHg 38%
23:00 +20°C° 0 mm 4 m/s 747 mmHg 38%

25 Septembre, Vendredi

Heure Température Précipitation Vent Pression Humidité
00:00 +20°C° 0 mm 4 m/s 747 mmHg 38%
01:00 +19°C° 0 mm 4 m/s 747 mmHg 39%
02:00 +19°C° 0 mm 4 m/s 747 mmHg 41%
03:00 +18°C° 0 mm 4 m/s 747 mmHg 42%
04:00 +18°C° 0 mm 4 m/s 747 mmHg 43%
05:00 +17°C° 0 mm 4 m/s 747 mmHg 45%
06:00 +17°C° 0 mm 4 m/s 747 mmHg 46%
07:00 +17°C° 0 mm 5 m/s 747 mmHg 43%
08:00 +20°C° 0 mm 6 m/s 747 mmHg 41%
09:00 +21°C° 0 mm 6 m/s 747 mmHg 38%
10:00 +23°C° 0 mm 7 m/s 747 mmHg 34%
11:00 +24°C° 0 mm 7 m/s 747 mmHg 30%
12:00 +27°C° 0 mm 8 m/s 747 mmHg 27%
13:00 +28°C° 0 mm 7 m/s 746 mmHg 25%
14:00 +29°C° 0 mm 7 m/s 746 mmHg 24%
15:00 +29°C° 0 mm 7 m/s 746 mmHg 22%
16:00 +28°C° 0 mm 6 m/s 745 mmHg 23%
17:00 +28°C° 0 mm 4 m/s 745 mmHg 24%
18:00 +27°C° 0 mm 3 m/s 745 mmHg 25%
19:00 +26°C° 0 mm 4 m/s 745 mmHg 27%
20:00 +23°C° 0 mm 4 m/s 745 mmHg 28%
21:00 +22°C° 0 mm 5 m/s 745 mmHg 30%
22:00 +22°C° 0 mm 5 m/s 744 mmHg 30%
23:00 +22°C° 0 mm 5 m/s 744 mmHg 31%
Voir plus